• Em Portugal
  • Lista de países
  • Para 7 dias
  • Temperatura da água
  • Mapas de satélite
  • Mapa do tempo
  • Widgets de tempo
  • user-avatar
    Iniciar Sessão

    Previsão horária em Gaziantep

    Hoje, 22 Setembro, Sábado

    Tempo Temperatura Precipitação Vento Pressão Humidade
    00:00 +21°C° 0 mm 2 m/s 672 mmHg 56%
    01:00 +21°C° 0 mm 2 m/s 672 mmHg 57%
    02:00 +20°C° 0 mm 2 m/s 671 mmHg 58%
    03:00 +20°C° 0 mm 2 m/s 671 mmHg 58%
    04:00 +20°C° 0 mm 2 m/s 671 mmHg 58%
    05:00 +19°C° 0 mm 2 m/s 671 mmHg 58%
    06:00 +21°C° 0 mm 2 m/s 672 mmHg 50%
    07:00 +24°C° 0 mm 2 m/s 673 mmHg 43%
    08:00 +25°C° 0 mm 2 m/s 673 mmHg 35%
    09:00 +27°C° 0 mm 2 m/s 673 mmHg 30%
    10:00 +28°C° 0 mm 2 m/s 674 mmHg 25%
    11:00 +30°C° 0 mm 1 m/s 674 mmHg 20%
    12:00 +30°C° 0 mm 2 m/s 674 mmHg 19%
    13:00 +31°C° 0 mm 2 m/s 674 mmHg 17%
    14:00 +31°C° 0 mm 2 m/s 673 mmHg 16%
    15:00 +31°C° 0 mm 3 m/s 673 mmHg 18%
    16:00 +30°C° 0 mm 3 m/s 673 mmHg 20%
    17:00 +29°C° 0 mm 3 m/s 673 mmHg 21%
    18:00 +28°C° 0 mm 3 m/s 673 mmHg 27%
    19:00 +26°C° 0 mm 3 m/s 673 mmHg 33%
    20:00 +24°C° 0 mm 3 m/s 673 mmHg 39%
    21:00 +24°C° 0 mm 3 m/s 673 mmHg 43%
    22:00 +22°C° 0 mm 3 m/s 673 mmHg 47%
    23:00 +21°C° 0 mm 2 m/s 673 mmHg 51%

    Amanhã, 23 Setembro, Domingo

    Tempo Temperatura Precipitação Vento Pressão Humidade
    00:00 +21°C° 0 mm 2 m/s 672 mmHg 53%
    01:00 +20°C° 0 mm 2 m/s 672 mmHg 55%
    02:00 +20°C° 0 mm 2 m/s 672 mmHg 57%
    03:00 +19°C° 0 mm 2 m/s 672 mmHg 57%
    04:00 +19°C° 0 mm 2 m/s 672 mmHg 57%
    05:00 +19°C° 0 mm 2 m/s 672 mmHg 57%
    06:00 +20°C° 0 mm 2 m/s 673 mmHg 50%
    07:00 +23°C° 0 mm 2 m/s 673 mmHg 43%
    08:00 +25°C° 0 mm 3 m/s 674 mmHg 36%
    09:00 +27°C° 0 mm 3 m/s 674 mmHg 30%
    10:00 +28°C° 0 mm 3 m/s 675 mmHg 24%
    11:00 +30°C° 0 mm 3 m/s 675 mmHg 18%
    12:00 +31°C° 0 mm 3 m/s 675 mmHg 17%
    13:00 +31°C° 0 mm 3 m/s 675 mmHg 16%
    14:00 +33°C° 0 mm 3 m/s 675 mmHg 15%
    15:00 +31°C° 0 mm 3 m/s 674 mmHg 17%
    16:00 +30°C° 0 mm 3 m/s 674 mmHg 19%
    17:00 +29°C° 0 mm 3 m/s 674 mmHg 21%
    18:00 +28°C° 0 mm 3 m/s 674 mmHg 27%
    19:00 +26°C° 0 mm 3 m/s 674 mmHg 33%
    20:00 +25°C° 0 mm 2 m/s 674 mmHg 38%
    21:00 +24°C° 0 mm 2 m/s 674 mmHg 41%
    22:00 +23°C° 0 mm 2 m/s 674 mmHg 43%
    23:00 +23°C° 0 mm 2 m/s 674 mmHg 46%

    Depois de amanhã, 24 Setembro, Segunda-feira

    Tempo Temperatura Precipitação Vento Pressão Humidade
    00:00 +21°C° 0 mm 2 m/s 674 mmHg 46%
    01:00 +21°C° 0 mm 2 m/s 673 mmHg 45%
    02:00 +20°C° 0 mm 2 m/s 673 mmHg 45%
    03:00 +20°C° 0 mm 2 m/s 673 mmHg 43%
    04:00 +19°C° 0 mm 2 m/s 673 mmHg 41%
    05:00 +19°C° 0 mm 2 m/s 673 mmHg 38%
    06:00 +21°C° 0 mm 2 m/s 673 mmHg 32%
    07:00 +24°C° 0 mm 2 m/s 674 mmHg 26%
    08:00 +25°C° 0 mm 2 m/s 675 mmHg 19%
    09:00 +27°C° 0 mm 2 m/s 675 mmHg 17%
    10:00 +29°C° 0 mm 1 m/s 675 mmHg 14%
    11:00 +30°C° 0 mm 1 m/s 675 mmHg 11%
    12:00 +31°C° 0 mm 1 m/s 675 mmHg 11%
    13:00 +31°C° 0 mm 1 m/s 674 mmHg 10%
    14:00 +32°C° 0 mm 1 m/s 674 mmHg 10%
    15:00 +31°C° 0 mm 2 m/s 674 mmHg 12%
    16:00 +30°C° 0 mm 2 m/s 673 mmHg 13%
    17:00 +30°C° 0 mm 2 m/s 673 mmHg 15%
    18:00 +28°C° 0 mm 2 m/s 673 mmHg 18%
    19:00 +27°C° 0 mm 2 m/s 673 mmHg 20%
    20:00 +25°C° 0 mm 2 m/s 673 mmHg 23%
    21:00 +25°C° 0 mm 2 m/s 673 mmHg 25%
    22:00 +24°C° 0 mm 2 m/s 672 mmHg 27%
    23:00 +23°C° 0 mm 2 m/s 672 mmHg 30%

    25 Setembro, Terça-feira

    Tempo Temperatura Precipitação Vento Pressão Humidade
    00:00 +23°C° 0 mm 2 m/s 672 mmHg 31%
    01:00 +21°C° 0 mm 2 m/s 672 mmHg 33%
    02:00 +21°C° 0 mm 2 m/s 671 mmHg 34%
    03:00 +21°C° 0 mm 1 m/s 671 mmHg 35%
    04:00 +21°C° 0 mm 1 m/s 671 mmHg 35%
    05:00 +20°C° 0 mm 1 m/s 671 mmHg 36%
    06:00 +22°C° 0 mm 1 m/s 672 mmHg 32%
    07:00 +24°C° 0 mm 1 m/s 672 mmHg 28%
    08:00 +26°C° 0 mm 1 m/s 673 mmHg 24%
    09:00 +28°C° 0 mm 1 m/s 673 mmHg 21%
    10:00 +29°C° 0 mm 1 m/s 673 mmHg 18%
    11:00 +31°C° 0 mm 1 m/s 673 mmHg 15%
    12:00 +31°C° 0 mm 1 m/s 673 mmHg 14%
    13:00 +32°C° 0 mm 2 m/s 673 mmHg 14%
    14:00 +32°C° 0 mm 2 m/s 672 mmHg 13%
    15:00 +31°C° 0 mm 2 m/s 672 mmHg 15%
    16:00 +31°C° 0 mm 2 m/s 671 mmHg 17%
    17:00 +30°C° 0 mm 3 m/s 671 mmHg 19%
    18:00 +28°C° 0 mm 2 m/s 671 mmHg 24%
    19:00 +27°C° 0 mm 2 m/s 671 mmHg 28%
    20:00 +25°C° 0 mm 2 m/s 671 mmHg 33%
    21:00 +24°C° 0 mm 2 m/s 670 mmHg 36%
    22:00 +24°C° 0 mm 2 m/s 670 mmHg 40%
    23:00 +23°C° 0 mm 2 m/s 670 mmHg 43%

    26 Setembro, Quarta-feira

    Tempo Temperatura Precipitação Vento Pressão Humidade
    00:00 +21°C° 0 mm 2 m/s 670 mmHg 45%
    01:00 +21°C° 0 mm 2 m/s 669 mmHg 47%
    02:00 +20°C° 0 mm 2 m/s 669 mmHg 49%
    03:00 +20°C° 0 mm 2 m/s 669 mmHg 51%
    04:00 +19°C° 0 mm 2 m/s 669 mmHg 52%
    05:00 +19°C° 0 mm 2 m/s 669 mmHg 53%
    06:00 +20°C° 0 mm 2 m/s 670 mmHg 49%
    07:00 +23°C° 0 mm 2 m/s 670 mmHg 45%
    08:00 +24°C° 0 mm 2 m/s 671 mmHg 41%
    09:00 +26°C° 0 mm 2 m/s 671 mmHg 36%
    10:00 +27°C° 0 mm 2 m/s 671 mmHg 31%
    11:00 +29°C° 0 mm 2 m/s 671 mmHg 26%
    12:00 +29°C° 0 mm 2 m/s 671 mmHg 24%
    13:00 +30°C° 0 mm 2 m/s 670 mmHg 23%
    14:00 +31°C° 0 mm 2 m/s 670 mmHg 22%
    15:00 +30°C° 0.1 mm 3 m/s 669 mmHg 25%
    16:00 +29°C° 0.1 mm 3 m/s 669 mmHg 29%
    17:00 +28°C° 0.1 mm 4 m/s 669 mmHg 32%
    18:00 +27°C° 0.1 mm 4 m/s 669 mmHg 39%
    19:00 +25°C° 0.1 mm 4 m/s 669 mmHg 45%
    20:00 +24°C° 0.1 mm 3 m/s 669 mmHg 52%
    21:00 +22°C° 0 mm 3 m/s 668 mmHg 56%
    22:00 +21°C° 0 mm 3 m/s 668 mmHg 60%
    23:00 +20°C° 0 mm 3 m/s 668 mmHg 64%

    27 Setembro, Quinta-feira

    Tempo Temperatura Precipitação Vento Pressão Humidade
    00:00 +20°C° 0 mm 3 m/s 668 mmHg 66%
    01:00 +19°C° 0 mm 3 m/s 667 mmHg 69%
    02:00 +19°C° 0 mm 2 m/s 667 mmHg 71%
    03:00 +18°C° 0 mm 2 m/s 667 mmHg 72%
    04:00 +18°C° 0 mm 2 m/s 667 mmHg 73%
    05:00 +17°C° 0 mm 2 m/s 666 mmHg 74%
    06:00 +18°C° 0 mm 2 m/s 667 mmHg 68%
    07:00 +19°C° 0 mm 2 m/s 667 mmHg 62%
    08:00 +20°C° 0 mm 2 m/s 667 mmHg 55%
    09:00 +22°C° 0.1 mm 3 m/s 667 mmHg 49%
    10:00 +23°C° 0.1 mm 4 m/s 668 mmHg 43%
    11:00 +25°C° 0.1 mm 4 m/s 668 mmHg 37%
    12:00 +25°C° 0.1 mm 5 m/s 667 mmHg 36%
    13:00 +26°C° 0.1 mm 6 m/s 667 mmHg 34%
    14:00 +26°C° 0.1 mm 6 m/s 667 mmHg 33%
    15:00 +24°C° 0 mm 6 m/s 666 mmHg 36%
    16:00 +23°C° 0 mm 6 m/s 666 mmHg 39%
    17:00 +22°C° 0 mm 5 m/s 666 mmHg 43%
    18:00 +21°C° 0 mm 5 m/s 666 mmHg 49%
    19:00 +20°C° 0 mm 4 m/s 667 mmHg 55%
    20:00 +19°C° 0 mm 3 m/s 667 mmHg 62%
    21:00 +19°C° 0.2 mm 3 m/s 667 mmHg 65%
    22:00 +18°C° 0.2 mm 2 m/s 666 mmHg 69%
    23:00 +17°C° 0.2 mm 2 m/s 666 mmHg 72%
    Mostrar mais